[[{"header":{"parameterUnit":"m.s-1","parameterCategory":1,"la1":30.2991,"la2":30.254,"lo1":-89.0895,"lo2":-89.0444,"dy":0.0017,"dx":0.0017,"nx":28,"ny":28,"refTime":"2025-03-10T03:00:00:Z","depth":0,"parameterNumber":2,"parameterNumberName":"U-component_of_WINDS"},"data":[0,0,0,0,0,0,0,0,0,0,0,0,0,0,0,0,0,0,0,0,0,0,0,0,0,0,0,0,0,0,0,0,0,0,0,0,0,0,0,0,0,0,0,0,0,0,0,0,0,0,0,0,0,0,0,0,0,0,2.4891,2.4888,0,2.4581,2.4578,2.4574,2.4296,2.4293,2.4289,2.4286,2.3959,2.3953,2.3948,0,0,0,0,0,0,0,0,0,0,0,0,0,2.5234,2.5229,2.4892,2.4888,2.4884,2.4582,2.4577,2.4573,2.4296,2.4292,2.4289,2.4285,2.3961,2.3954,2.3947,0,0,0,0,0,0,0,0,0,0,0,0,0,2.5021,2.5227,2.4892,2.471,2.469,2.4583,2.4577,2.4572,2.4297,2.4292,2.4288,2.4283,2.3963,2.3955,2.3946,2.3992,0,0,2.392,2.3917,0,0,0,0,0,0,0,0,2.5033,2.5008,2.474,2.4722,2.47,2.4472,2.4578,2.4377,2.4299,2.4446,2.4286,2.4281,2.4133,2.411,2.4062,2.3976,2.3962,2.392,2.3914,2.3911,2.3908,0,0,0,0,0,0,0,2.5048,2.502,2.4768,2.4737,2.4712,2.4639,2.4604,2.4538,2.432,2.4433,2.4412,2.438,2.4121,2.4071,2.4053,2.3957,2.392,2.3912,2.3907,2.3904,2.3889,2.3894,0,0,0,0,0,0,2.5092,2.5034,2.4778,2.4759,2.4858,2.4638,2.4597,2.455,2.4321,2.4281,2.4384,2.4368,2.4088,2.4063,2.404,2.4077,2.3911,2.3903,2.3898,2.3885,2.389,2.3896,0,0,0,0,0,0,2.5101,2.5072,2.4791,2.4891,2.485,2.4637,2.4586,2.4547,2.4497,2.4284,2.4242,2.4374,2.4084,2.4052,2.4006,2.4062,2.3899,2.3891,2.3879,2.3886,2.3893,2.4154,0,0,0,0,0,0,2.5112,2.5077,2.5095,2.4894,2.4845,2.4766,2.4589,2.4544,2.4484,2.446,2.4264,2.4226,2.4077,2.402,2.3998,2.4047,2.3885,2.3873,2.3882,2.3891,2.4139,2.4169,2.4194,0,0,0,0,0,2.5125,2.5179,2.5097,2.5068,2.4864,2.477,2.4742,2.4572,2.449,2.4504,2.4367,2.4232,2.406,2.4018,2.399,2.4038,2.3869,2.388,2.389,2.4127,2.4163,2.4193,0,0,0,0,0,0,2.5389,2.5149,2.5056,2.5047,2.4932,2.4724,2.4737,2.4616,2.4519,2.45,2.429,2.4248,2.4225,2.4125,2.4084,2.4068,2.3946,2.3951,2.4135,2.4168,2.4195,2.422,2.3878,0,0,0,0,0,2.5448,2.5395,2.5186,2.5198,2.5145,2.4952,2.4904,2.4784,2.4654,2.4603,2.4462,2.4339,2.4255,2.4205,2.4117,2.4122,2.4074,2.4141,2.4169,2.4192,2.42,2.4193,2.422,2.393,2.393,2.393,0,0,2.5565,2.5427,2.5407,2.5248,2.5144,2.5091,2.4912,2.4864,2.4821,2.4594,2.4543,2.4435,2.4283,2.4263,2.4246,2.4179,2.4269,2.4206,2.4227,2.4221,2.4207,2.4235,2.426,2.3938,2.3936,2.3935,0,0,2.5754,2.5645,2.5643,2.5543,2.5389,2.526,2.526,2.5069,2.499,2.4936,2.4764,2.4707,2.457,2.4468,2.4399,2.4547,2.4419,2.4523,2.4668,2.4664,2.4687,2.4706,2.4759,2.478,2.4531,2.4532,2.4532,0,2.5919,2.5837,2.5656,2.5619,2.5553,2.5347,2.5341,2.5251,2.5076,2.5034,2.4961,2.4783,2.4666,2.4619,2.4655,2.4605,2.4596,2.4546,2.4699,2.4716,2.4731,2.4779,2.4799,2.4546,2.4544,2.4543,2.4541,0,2.6047,2.5992,2.6008,2.5848,2.5782,2.5762,2.5575,2.553,2.5414,2.5292,2.5237,2.5089,2.4967,2.4946,2.4831,2.4881,2.4844,2.4739,2.4611,2.4776,2.4817,2.4834,2.4566,2.4561,2.4556,2.4553,0,0,2.6396,2.6136,2.6145,2.6069,2.5883,2.5835,2.5802,2.5686,2.5652,2.5536,2.5502,2.5389,2.529,2.5211,2.5082,2.5078,2.5204,2.4971,2.4964,2.502,2.5249,2.5332,2.5356,2.5118,2.512,2.5122,2.5262,0,2.6555,2.649,2.6326,2.631,2.6255,2.6057,2.6028,2.5909,2.5793,2.5726,2.5594,2.5519,2.5393,2.5344,2.5332,2.5193,2.5248,2.5179,2.5082,2.508,2.5129,2.5377,2.5465,2.5604,2.5277,2.5279,2.5281,0,2.6732,2.6633,2.6614,2.643,2.64,2.6378,2.6258,2.6197,2.6056,2.5971,2.5884,2.5741,2.5692,2.5574,2.5501,2.5459,2.5407,2.5333,2.5334,2.5319,2.5193,2.5371,2.5644,2.5667,2.5305,2.5303,2.5301,0,2.6991,2.6851,2.6821,2.6762,2.6546,2.6535,2.6444,2.6298,2.6238,2.613,2.6089,2.5976,2.5915,2.5829,2.5658,2.5588,2.5605,2.5472,2.5531,2.5536,2.5545,2.5547,2.5816,2.5511,2.5511,2.551,2.551,0,2.7186,2.7182,2.6934,2.6916,2.6904,2.6713,2.6704,2.6593,2.6465,2.6419,2.6238,2.6198,2.5974,2.5907,2.5772,2.5732,2.5705,2.5633,2.5597,2.565,2.566,2.5615,2.5602,2.5515,2.5514,2.5513,2.5512,0,2.7474,2.7308,2.7262,2.7062,2.7011,2.7012,2.6837,2.681,2.6682,2.6626,2.6601,2.6399,2.631,2.6131,2.5991,2.5899,2.5891,2.5827,2.5941,2.5919,2.5988,2.5985,2.6239,2.6262,2.5943,2.5946,2.5949,0,2.7612,2.7604,2.7404,2.7362,2.7279,2.7213,2.7151,2.696,2.6903,2.6741,2.6733,2.663,2.6538,2.6403,2.6242,2.6133,2.6066,2.6162,2.6048,2.6101,2.6068,2.6071,2.6069,2.6189,2.6193,2.6197,2.62,0,2.7873,2.7791,2.7712,2.7604,2.7536,2.7441,2.7335,2.731,2.7093,2.7037,2.6945,2.6875,2.6732,2.6632,2.6499,2.6399,2.6263,2.6237,2.6244,2.6299,2.6366,2.6331,2.6012,2.6232,2.6229,2.6227,2.6225,2.6224,2.8089,2.8073,2.7931,2.7847,2.7748,2.7653,2.7618,2.7486,2.7408,2.7281,2.7171,2.7089,2.6943,2.6751,2.666,2.659,2.6524,2.6535,2.6538,2.6544,2.6567,2.6377,2.6564,2.6563,2.6562,2.6561,2.656,0,2.8342,2.824,2.8166,2.8026,2.796,2.784,2.7715,2.7667,2.7599,2.7476,2.739,2.7284,2.7184,2.7014,2.69,2.6876,2.6811,2.6852,2.6853,2.6832,2.6632,2.6637,2.6907,2.6907,2.6907,2.6907,2.6907,2.6907,2.8466,2.8434,2.8334,2.8248,2.8143,2.8066,2.8005,2.7915,2.7816,2.7708,2.7626,2.7516,2.7373,2.7246,2.7148,2.71,2.7067,2.7129,2.7062,2.6879,2.6846,2.6815,2.6819,2.7123,2.7123,2.7267,2.7268,2.7269]},{"header":{"parameterUnit":"m.s-1","parameterCategory":1,"la1":30.2991,"la2":30.254,"lo1":-89.0895,"lo2":-89.0444,"dy":0.0017,"dx":0.0017,"nx":28,"ny":28,"refTime":"2025-03-10T03:00:00:Z","depth":0,"parameterNumber":3,"parameterNumberName":"V-component_of_WINDS"},"data":[0,0,0,0,0,0,0,0,0,0,0,0,0,0,0,0,0,0,0,0,0,0,0,0,0,0,0,0,0,0,0,0,0,0,0,0,0,0,0,0,0,0,0,0,0,0,0,0,0,0,0,0,0,0,0,0,0,0,0.7469,0.7469,0,0.7455,0.7455,0.7455,0.7415,0.7414,0.7413,0.7412,0.7399,0.74,0.74,0,0,0,0,0,0,0,0,0,0,0,0,0,0.746,0.7461,0.7469,0.7469,0.7468,0.7456,0.7455,0.7455,0.7415,0.7414,0.7413,0.7412,0.7399,0.74,0.74,0,0,0,0,0,0,0,0,0,0,0,0,0,0.7457,0.7461,0.7469,0.7447,0.7445,0.7456,0.7455,0.7455,0.7415,0.7414,0.7412,0.7411,0.7399,0.74,0.74,0.7432,0,0,0.7403,0.7403,0,0,0,0,0,0,0,0,0.7457,0.7458,0.745,0.7448,0.7446,0.7435,0.7448,0.7447,0.7415,0.7426,0.7412,0.741,0.7412,0.7412,0.7412,0.7431,0.7431,0.7403,0.7403,0.7404,0.7404,0,0,0,0,0,0,0,0.7458,0.7458,0.7463,0.745,0.7447,0.7438,0.7436,0.7447,0.7427,0.7425,0.7422,0.7421,0.7411,0.7412,0.7412,0.7431,0.7403,0.7403,0.7404,0.7404,0.7474,0.7476,0,0,0,0,0,0,0.7461,0.7458,0.7464,0.7463,0.7448,0.7439,0.7437,0.744,0.7427,0.7424,0.7422,0.7419,0.7411,0.7411,0.7411,0.7446,0.7404,0.7404,0.7405,0.7473,0.7475,0.7476,0,0,0,0,0,0,0.7461,0.7462,0.7464,0.746,0.746,0.7441,0.7445,0.7441,0.7441,0.7425,0.7421,0.7427,0.741,0.741,0.7427,0.7445,0.7405,0.7405,0.7471,0.7473,0.7475,0.7517,0,0,0,0,0,0,0.7461,0.7462,0.7473,0.746,0.746,0.748,0.7446,0.7441,0.7443,0.7438,0.7428,0.7425,0.7409,0.7426,0.7428,0.7446,0.7406,0.7469,0.7472,0.7475,0.7514,0.752,0.7526,0,0,0,0,0,0.7461,0.7486,0.7474,0.7475,0.7474,0.7481,0.7481,0.7462,0.7444,0.7455,0.7445,0.7425,0.7444,0.7428,0.743,0.7448,0.7468,0.7471,0.7474,0.7511,0.7519,0.7526,0,0,0,0,0,0,0.7501,0.7484,0.747,0.7492,0.7488,0.7474,0.7487,0.7471,0.7472,0.7468,0.7446,0.7444,0.7463,0.7458,0.7441,0.7478,0.7453,0.7456,0.748,0.7487,0.7493,0.7493,0.7406,0,0,0,0,0,0.7513,0.752,0.7504,0.7525,0.7524,0.7507,0.7509,0.7495,0.749,0.7488,0.7479,0.7476,0.748,0.7484,0.7488,0.7514,0.7511,0.7528,0.7534,0.7539,0.7541,0.7554,0.7561,0.7487,0.7487,0.7487,0,0,0.7536,0.7528,0.7534,0.7533,0.7528,0.7536,0.7505,0.7515,0.7521,0.749,0.7504,0.7498,0.7493,0.7514,0.7523,0.751,0.7561,0.7543,0.7547,0.7547,0.7558,0.7565,0.7571,0.7489,0.7488,0.7488,0,0,0.7583,0.7578,0.7594,0.759,0.7584,0.7572,0.7576,0.7565,0.7559,0.7574,0.7551,0.7558,0.7567,0.7564,0.7563,0.7611,0.7592,0.7613,0.7643,0.7656,0.7662,0.7667,0.7682,0.7688,0.7616,0.7616,0.7616,0,0.7613,0.7624,0.7604,0.7616,0.7616,0.7589,0.7605,0.7603,0.7598,0.7599,0.7585,0.7596,0.7591,0.761,0.7622,0.7623,0.7627,0.7613,0.7663,0.7667,0.7672,0.7686,0.7692,0.7619,0.7619,0.7618,0.7618,0,0.766,0.7668,0.7682,0.7678,0.768,0.7694,0.7677,0.7682,0.7669,0.7659,0.7675,0.7668,0.7669,0.7673,0.766,0.7692,0.7683,0.7667,0.764,0.7682,0.7695,0.77,0.7622,0.7621,0.7621,0.762,0,0,0.7729,0.7715,0.7721,0.7718,0.771,0.7716,0.773,0.7731,0.7735,0.7734,0.7743,0.7753,0.7737,0.7737,0.7724,0.7735,0.7772,0.7717,0.7716,0.7725,0.7804,0.7816,0.7822,0.7761,0.7762,0.7762,0.7804,0,0.7772,0.7792,0.7776,0.78,0.7807,0.7783,0.7794,0.7791,0.7782,0.7787,0.7779,0.7785,0.7764,0.7764,0.7775,0.7765,0.7787,0.7762,0.7769,0.7769,0.7768,0.783,0.7841,0.7881,0.781,0.781,0.7811,0,0.7824,0.7824,0.7848,0.7839,0.7841,0.7852,0.7852,0.7857,0.7853,0.7846,0.7847,0.7831,0.7844,0.782,0.7837,0.782,0.7823,0.7819,0.782,0.7818,0.7791,0.7827,0.7893,0.7899,0.7819,0.7819,0.7818,0,0.7869,0.7877,0.7892,0.7891,0.7881,0.7888,0.7885,0.7879,0.7881,0.7882,0.7883,0.7886,0.7887,0.7889,0.7875,0.7859,0.7893,0.7868,0.7887,0.7887,0.7893,0.7892,0.7958,0.7898,0.7898,0.7898,0.7898,0,0.7917,0.7932,0.7912,0.7921,0.7938,0.792,0.7937,0.7931,0.7927,0.7935,0.7915,0.7923,0.7904,0.791,0.7899,0.7914,0.7915,0.791,0.7906,0.791,0.791,0.7909,0.7905,0.79,0.7899,0.7899,0.7899,0,0.797,0.7957,0.7972,0.7961,0.7959,0.7972,0.7963,0.7971,0.7963,0.7973,0.7974,0.796,0.7966,0.7953,0.7957,0.795,0.797,0.7964,0.7971,0.7969,0.7987,0.7985,0.8053,0.806,0.7998,0.7999,0.7999,0,0.8,0.8011,0.8002,0.8006,0.8003,0.8009,0.8011,0.7995,0.7998,0.7995,0.8004,0.8008,0.8011,0.8022,0.8012,0.8016,0.8007,0.8031,0.8008,0.8011,0.8006,0.8004,0.8005,0.8035,0.8036,0.8037,0.8037,0,0.8054,0.8047,0.8051,0.8053,0.8056,0.8056,0.8056,0.806,0.8043,0.8048,0.8053,0.8056,0.806,0.8065,0.8066,0.8062,0.8047,0.8045,0.8049,0.8052,0.8055,0.8052,0.7982,0.8043,0.8042,0.8042,0.8042,0.8041,0.8095,0.8104,0.8099,0.8103,0.8102,0.8102,0.8108,0.8101,0.8106,0.8108,0.8099,0.8107,0.8103,0.8103,0.8102,0.8108,0.8097,0.8103,0.8105,0.8106,0.8108,0.8057,0.8108,0.8108,0.8108,0.8108,0.8108,0,0.8146,0.8142,0.8147,0.8147,0.8151,0.8137,0.8136,0.814,0.8147,0.8145,0.8148,0.8155,0.816,0.8152,0.8155,0.8162,0.8155,0.8163,0.8161,0.816,0.8118,0.8113,0.8169,0.8169,0.8169,0.8168,0.8168,0.8168,0.8173,0.8187,0.818,0.8193,0.8189,0.8196,0.8197,0.8197,0.8195,0.8204,0.8208,0.8202,0.8198,0.8201,0.8205,0.8202,0.8204,0.8214,0.8209,0.8169,0.8163,0.8158,0.8153,0.8215,0.8215,0.825,0.825,0.8251]}]]